Le nostre stazioni meteo in Italia

Pubblicità
Il mio iltempo24.it
Gela, Italia (16453): Temperatura & dewpoint: 19.01.2020 05:00:00 - 25.01.2020 05:00:00 (CET)Gela, Italia (16453): velocità del vento: 19.01.2020 05:00:00 - 25.01.2020 05:00:00 (CET)Gela, Italia (16453): direzione del vento: 19.01.2020 05:00:00 - 25.01.2020 05:00:00 (CET)Gela, Italia (16453): reduced air pressure: 19.01.2020 05:00:00 - 25.01.2020 05:00:00 (CET)Gela, Italia (16453): visibility: 19.01.2020 05:00:00 - 25.01.2020 05:00:00 (CET)Gela, Italia (16453): ore di luce: 19.01.2020 05:00:00 - 25.01.2020 05:00:00 (CET)
Data & Tempo tt [°C] td [°C] ff [km/h] ff [kn] dd ppp [hPa] vv [km] sd [min]
25.01.2020 05:00:00 - - - - - - - -
25.01.2020 04:00:00 - - - - - - - -
25.01.2020 03:00:00 - - - - - - - -
25.01.2020 02:00:00 - - - - - - - -
25.01.2020 01:00:00 - - - - - - - -
25.01.2020 00:00:00 - - - - - - - -
24.01.2020 23:00:00 - - - - - - - -
24.01.2020 22:00:00 - - - - - - - -
24.01.2020 21:00:00 - - - - - - - -
24.01.2020 20:00:00 - - - - - - - -
24.01.2020 19:00:00 12,8 8,5 9 5 E 1027,0 18 0
24.01.2020 18:00:00 13,0 9,0 11 6 - - 10 -
24.01.2020 17:00:00 13,0 9,0 9 5 ESE - 10 -
24.01.2020 16:00:00 13,8 8,2 13 7 SE 1026,4 18 0
24.01.2020 15:00:00 14,0 10,0 9 5 SSE - 10 -
24.01.2020 14:00:00 14,0 9,0 13 7 S - 10 -
24.01.2020 13:00:00 13,6 8,7 4 2 N 1027,7 20 0
24.01.2020 12:00:00 14,0 8,0 9 5 - - 10 -
24.01.2020 11:00:00 13,0 8,0 9 5 - - 10 -
24.01.2020 10:00:00 12,8 8,5 9 5 E 1028,6 20 0
24.01.2020 09:00:00 12,0 9,0 8 4 ENE - 10 -
24.01.2020 08:00:00 12,0 9,0 9 5 ENE - 10 -
24.01.2020 07:00:00 12,0 8,7 9 5 E 1027,7 20 0
24.01.2020 06:00:00 - - - - - - - -
24.01.2020 05:00:00 - - - - - - - -
24.01.2020 04:00:00 - - - - - - - -
24.01.2020 03:00:00 - - - - - - - -
24.01.2020 02:00:00 - - - - - - - -
24.01.2020 01:00:00 - - - - - - - -
24.01.2020 00:00:00 - - - - - - - -
23.01.2020 23:00:00 - - - - - - - -
23.01.2020 22:00:00 - - - - - - - -
23.01.2020 21:00:00 - - - - - - - -
23.01.2020 20:00:00 - - - - - - - -
23.01.2020 19:00:00 12,8 8,1 4 2 N 1027,2 20 0
23.01.2020 18:00:00 13,0 8,0 5 3 SSE - 10 -
23.01.2020 17:00:00 13,0 7,0 5 3 SSO - 10 -
23.01.2020 16:00:00 13,6 7,8 8 4 SSO 1027,0 20 0
23.01.2020 15:00:00 14,0 8,0 9 5 - - 10 -
23.01.2020 14:00:00 14,0 8,0 9 5 SSO - 10 -
23.01.2020 13:00:00 14,0 7,1 5 3 S 1027,7 20 0
23.01.2020 12:00:00 13,0 8,0 5 3 E - 10 -
23.01.2020 11:00:00 13,0 8,0 8 4 ENE - 10 -
23.01.2020 10:00:00 13,0 8,1 8 4 ENE 1028,7 20 0
23.01.2020 09:00:00 12,0 8,0 11 6 E - 10 -
23.01.2020 08:00:00 12,0 8,0 11 6 E - 10 -
23.01.2020 07:00:00 12,2 7,9 9 5 E 1028,3 20 0
23.01.2020 06:00:00 - - - - - - - -
23.01.2020 05:00:00 - - - - - - - -
23.01.2020 04:00:00 - - - - - - - -
23.01.2020 03:00:00 - - - - - - - -
23.01.2020 02:00:00 - - - - - - - -
23.01.2020 01:00:00 - - - - - - - -
23.01.2020 00:00:00 - - - - - - - -
22.01.2020 23:00:00 - - - - - - - -
22.01.2020 22:00:00 - - - - - - - -
22.01.2020 21:00:00 - - - - - - - -
22.01.2020 20:00:00 - - - - - - - -
22.01.2020 19:00:00 12,6 10,3 9 5 E 1030,1 15 0
22.01.2020 18:00:00 13,0 10,0 9 5 ENE - 10 -
22.01.2020 17:00:00 13,0 9,0 8 4 ENE - 10 -
22.01.2020 16:00:00 13,2 9,1 4 2 N 1030,5 12 0
22.01.2020 15:00:00 13,0 10,0 5 3 - - 10 -
22.01.2020 14:00:00 13,0 9,0 9 5 ENE - 10 -
22.01.2020 13:00:00 13,2 10,2 4 2 N 1032,7 10 6
22.01.2020 12:00:00 13,0 10,0 15 8 ENE - 10 -
22.01.2020 11:00:00 13,0 11,0 15 8 ENE - 10 -
22.01.2020 10:00:00 12,4 10,6 15 8 ENE 1034,0 9 6
22.01.2020 09:00:00 12,0 11,0 11 6 ENE - 9 -
22.01.2020 08:00:00 12,0 11,0 15 8 - - 10 -
22.01.2020 07:00:00 12,0 10,9 15 8 E 1033,5 10 0
22.01.2020 06:00:00 - - - - - - - -
22.01.2020 05:00:00 - - - - - - - -
22.01.2020 04:00:00 - - - - - - - -
22.01.2020 03:00:00 - - - - - - - -
22.01.2020 02:00:00 - - - - - - - -
22.01.2020 01:00:00 - - - - - - - -
22.01.2020 00:00:00 - - - - - - - -
21.01.2020 23:00:00 - - - - - - - -
21.01.2020 22:00:00 - - - - - - - -
21.01.2020 21:00:00 - - - - - - - -
21.01.2020 20:00:00 - - - - - - - -
21.01.2020 19:00:00 13,0 9,4 4 2 N 1033,6 15 0
21.01.2020 18:00:00 14,0 9,0 11 6 E - 10 -
21.01.2020 17:00:00 14,0 11,0 9 5 ESE - 10 -
21.01.2020 16:00:00 14,4 11,2 13 7 S 1033,3 15 60
21.01.2020 15:00:00 15,0 10,0 15 8 - - 10 -
21.01.2020 14:00:00 15,0 10,0 13 7 - - 10 -
21.01.2020 13:00:00 14,8 7,4 4 2 N 1034,1 10 18
21.01.2020 12:00:00 14,0 10,0 11 6 SE - 10 -
21.01.2020 11:00:00 14,0 11,0 13 7 SE - 10 -
21.01.2020 10:00:00 13,6 11,0 13 7 SE 1034,9 10 0
21.01.2020 09:00:00 13,0 11,0 9 5 E - 10 -
21.01.2020 08:00:00 12,0 11,0 13 7 E - 10 -
21.01.2020 07:00:00 12,0 11,1 13 7 E 1033,5 15 0
21.01.2020 06:00:00 - - - - - - - -
21.01.2020 05:00:00 - - - - - - - -
21.01.2020 04:00:00 - - - - - - - -
21.01.2020 03:00:00 - - - - - - - -
21.01.2020 02:00:00 - - - - - - - -
21.01.2020 01:00:00 - - - - - - - -
21.01.2020 00:00:00 - - - - - - - -
20.01.2020 23:00:00 - - - - - - - -
20.01.2020 22:00:00 - - - - - - - -
20.01.2020 21:00:00 - - - - - - - -
20.01.2020 20:00:00 - - - - - - - -
20.01.2020 19:00:00 13,2 9,7 16 9 E 1030,4 15 0
20.01.2020 18:00:00 13,0 9,0 9 5 E - 10 -
20.01.2020 17:00:00 14,0 9,0 15 8 E - 10 -
20.01.2020 16:00:00 13,2 7,4 15 8 E 1029,1 20 0
20.01.2020 15:00:00 14,0 14,0 11 6 E - 10 -
20.01.2020 14:00:00 14,0 8,0 13 7 E - 10 -
20.01.2020 13:00:00 13,6 8,2 8 4 E 1029,2 25 0
20.01.2020 12:00:00 14,0 9,0 11 6 E - 10 -
20.01.2020 11:00:00 13,0 9,0 13 7 E - 10 -
20.01.2020 10:00:00 12,8 9,6 11 6 E 1028,6 25 12
20.01.2020 09:00:00 12,0 9,0 11 6 ENE - 10 -
20.01.2020 08:00:00 11,0 9,0 11 6 E - 10 -
20.01.2020 07:00:00 11,4 8,6 13 7 ENE 1026,8 25 0
20.01.2020 06:00:00 - - - - - - - -
20.01.2020 05:00:00 - - - - - - - -
20.01.2020 04:00:00 - - - - - - - -
20.01.2020 03:00:00 - - - - - - - -
20.01.2020 02:00:00 - - - - - - - -
20.01.2020 01:00:00 - - - - - - - -
20.01.2020 00:00:00 - - - - - - - -
19.01.2020 23:00:00 - - - - - - - -
19.01.2020 22:00:00 - - - - - - - -
19.01.2020 21:00:00 - - - - - - - -
19.01.2020 20:00:00 - - - - - - - -
19.01.2020 19:00:00 11,2 8,2 9 5 E 1023,1 15 0
19.01.2020 18:00:00 13,0 8,0 4 2 SSO - 10 -
19.01.2020 17:00:00 13,0 8,0 5 3 SO - 10 -
19.01.2020 16:00:00 13,4 7,6 8 4 SO 1021,5 10 60
19.01.2020 15:00:00 14,0 8,0 11 6 SO - 10 -
19.01.2020 14:00:00 14,0 8,0 11 6 SSO - 10 -
19.01.2020 13:00:00 14,0 7,5 4 2 N 1021,5 15 60
19.01.2020 12:00:00 14,0 8,0 8 4 - - 10 -
19.01.2020 11:00:00 12,0 8,0 4 2 - - 10 -
19.01.2020 10:00:00 12,0 7,5 4 2 N 1022,5 15 60
19.01.2020 09:00:00 11,0 7,0 5 3 SSO - 10 -
19.01.2020 08:00:00 10,0 6,0 5 3 ENE - 10 -
19.01.2020 07:00:00 9,4 5,8 4 2 N 1022,3 18 0
19.01.2020 06:00:00 - - - - - - - -
19.01.2020 05:00:00 - - - - - - - -

tt = Temperatura
td = dewpoint
ff = velocità del vento
dd = direzione del vento
ppp = reduced air pressure
vv = visibility
sd = ore di luce

Stazioni seguenti

WeatherPro
AMSI
MeteoEarth